Flag for India Weather past 2 weeks in Sawai Madhopur, Rajasthan, India

Now
72 °F

Haze.


Feels Like: 75 °F
Forecast: 45 / 70 °F
Wind: 5 mph from North

Location: Jaipur / Sanganer

Current Time: Dec 25, 2014 at 5:05:48 PM

Latest Report: Dec 25, 2014 at 4:00 PM


Visibility: 2 mi

Pressure: 30.07 "Hg

Humidity: 22%

Dew point: 30 °F

Location of Sawai MadhopurLocation

Historic Weather in Sawai Madhopur — Graph

°F

Sawai Madhopur temperature yesterday

Maximum temperature yesterday: 70 °F (at 2:00 PM)
Minimum temperature yesterday: 46 °F (at 6:30 AM)
Average temperature yesterday: 58 °F

Past Weeks' High & Low Weather Summary

 TemperatureHumidityPressure
High75 °F (Dec 10, 4:00 PM)100% (Dec 14, 8:00 AM)30.24 "Hg (Dec 14, 8:00 AM)
Low43 °F (Dec 21, 7:00 AM)12% (Dec 11, 3:00 PM)29.71 "Hg (Dec 12, 3:00 PM)
Average59 °F64%30.08 "Hg
* Reported Dec 10 4:00 PM — Dec 25 3:30 PM, Sawai Madhopur, Weather by CustomWeather, © 2014

Note: Actual official high and low records may vary slightly from our data, if they occured in-between our weather recording intervals... More about our weather records

Advertising

Sawai Madhopur weather history for previous 24 hours

 ConditionsComfort  
Time TempWeatherWind HumidityBarometerVisibility
3:30 PM
Dec 25
72 °FHaze.7 mph22%30.07 "Hg2 mi
3:00 PM72 °FHaze.8 mph22%30.07 "Hg2 mi
1:00 PM70 °FHaze.7 mph38%30.12 "Hg1 mi
10:00 AM59 °FFog.6 mph72%30.18 "Hg1 mi
9:00 AM55 °FFog.3 mph88%30.18 "Hg1 mi
8:00 AM48 °FFog.3 mph100%30.15 "Hg1 mi
6:00 AM48 °FFog.1 mph100%N/A1 mi
5:00 AM48 °FFog.2 mph100%30.09 "Hg1 mi
3:00 AM50 °FFog.2 mph100%30.09 "Hg1 mi
2:00 AM52 °FFog.3 mph94%30.09 "Hg1 mi
1:00 AM52 °FFog.1 mph94%30.12 "Hg1 mi
12:00 AM55 °FFog.3 mph82%30.12 "Hg1 mi
11:00 PM
Dec 24
55 °FFog.1 mph82%30.15 "Hg1 mi
10:00 PM57 °FFog.5 mph77%30.15 "Hg1 mi
9:00 PM57 °FFog.8 mph77%30.12 "Hg1 mi
8:00 PM59 °FFog.5 mph68%30.12 "Hg1 mi
5:00 PM68 °FClear.5 mph49%30.09 "Hg1 mi
Weather by CustomWeather, © 2014

See weather overviewHow to use our weather pages